Date String (YYYY-MM-DD hh:mm:ss) UTC,Instrument flags,absolute air pressure of the measurement (hPa),sample flow rate (lpm),inlet stack bypass flow (lpm),air temperature of the measurement (°C),ambient temperature measured by the external sensor (°C),aerosol sample conditioner tube jacket temperature (°C),OPC LED temperature (°C),internal box temperature (°C),relative humidity of the measurement (%),span deviation,mass concentration of particles derived from Lorenz-Mie calculation of OPC scattering (μg/m³),mass concentration of particles derived from Lorenz-Mie calculation of OPC scattering (μg/m³),mass concentration of particles derived from Lorenz-Mie calculation of OPC scattering (μg/m³)
DateTimeUTC,F1_M11,P_M11,Q1_M11,Q2_M11,T1_M11,T2_M11,T3_M11,T4_M11,T5_M11,U1_M11,ZSPAN_M11,X2_M11,X0_M11,X1_M11
2023-07-05 18:00:00,SystemResetWarning,0835.7,5.01,000.00,030.2,029.0,000.0,038.7,031.8,31.8,-003.6,0006.82,0009.32,0006.51
2023-07-05 18:01:00,SystemResetWarning,0835.6,4.99,000.00,030.2,029.0,000.0,038.7,031.8,31.8,-003.3,0006.81,0009.34,0006.51
2023-07-05 18:02:00,SystemResetWarning,0835.7,4.99,000.00,030.2,029.0,000.0,038.8,031.8,31.6,-003.2,0006.84,0009.40,0006.53
2023-07-05 18:03:00,SystemResetWarning,0835.6,4.99,000.00,030.3,029.0,000.0,038.8,031.8,31.5,-003.1,0006.86,0009.81,0006.54
2023-07-05 18:04:00,SystemResetWarning,0835.6,5.01,000.00,030.3,029.1,000.0,038.8,031.9,31.6,-003.3,0006.87,0010.38,0006.55
2023-07-05 18:05:00,SystemResetWarning,0835.7,5.00,000.00,030.3,028.2,000.0,038.7,031.8,31.6,-003.3,0006.87,0010.40,0006.58
2023-07-05 18:06:00,SystemResetWarning,0835.6,4.99,000.00,030.2,026.5,000.0,038.6,031.6,31.8,-003.4,0006.89,0010.43,0006.59
2023-07-05 18:07:00,SystemResetWarning,0835.7,5.00,000.00,030.2,025.9,000.0,038.5,031.4,32.1,-003.6,0006.91,0010.33,0006.61
2023-07-05 18:08:00,SystemResetWarning,0835.6,5.01,000.00,030.1,026.0,000.0,038.5,031.2,32.4,-003.6,0006.89,0010.23,0006.61
2023-07-05 18:09:00,SystemResetWarning,0835.6,5.01,000.00,030.0,026.4,000.0,038.6,031.2,32.5,-003.6,0006.90,0010.28,0006.62
2023-07-05 18:10:00,SystemResetWarning,0835.6,4.99,000.00,029.9,026.8,000.0,038.6,031.2,32.6,-003.7,0006.88,0010.18,0006.62
2023-07-05 18:11:00,SystemResetWarning,0835.6,5.00,000.00,029.9,027.1,000.0,038.6,031.3,32.7,-003.8,0006.88,0010.14,0006.62
2023-07-05 18:12:00,SystemResetWarning,0835.6,5.00,000.00,029.9,027.5,000.0,038.6,031.3,32.9,-003.8,0006.88,0010.16,0006.61
2023-07-05 18:13:00,SystemResetWarning,0835.6,5.01,000.00,029.9,027.7,000.0,038.6,031.4,32.8,-004.0,0006.88,0010.14,0006.59
2023-07-05 18:14:00,SystemResetWarning,0835.6,5.01,000.00,030.0,028.0,000.0,038.6,031.4,32.5,-004.0,0006.83,0010.04,0006.56
2023-07-05 18:15:00,SystemResetWarning,0835.6,5.00,000.00,030.0,028.1,000.0,038.6,031.5,32.3,-004.1,0006.81,0009.69,0006.55
2023-07-05 18:16:00,SystemResetWarning,0835.6,5.00,000.00,030.0,028.3,000.0,038.5,031.5,32.3,-003.9,0006.83,0009.12,0006.55
2023-07-05 18:17:00,SystemResetWarning,0835.7,5.00,000.00,030.0,028.4,000.0,038.5,031.5,32.4,-003.9,0006.82,0009.04,0006.54
2023-07-05 18:18:00,SystemResetWarning,0835.6,5.00,000.00,030.0,028.5,000.0,038.5,031.5,32.6,-003.9,0006.81,0009.05,0006.51
2023-07-05 18:19:00,SystemResetWarning,0835.6,5.00,000.00,030.0,028.6,000.0,038.6,031.6,32.6,-004.0,0006.82,0009.08,0006.52
2023-07-05 18:20:00,SystemResetWarning,0835.6,5.00,000.00,030.1,028.6,000.0,038.6,031.6,32.3,-004.0,0006.84,0009.16,0006.53
2023-07-05 18:21:00,SystemResetWarning,0835.6,5.00,000.00,030.1,028.7,000.0,038.6,031.6,32.1,-003.9,0006.84,0009.37,0006.53
2023-07-05 18:22:00,SystemResetWarning,0835.6,5.00,000.00,030.1,028.8,000.0,038.6,031.6,32.3,-003.6,0006.86,0009.56,0006.53
2023-07-05 18:23:00,SystemResetWarning,0835.6,5.00,000.00,030.1,028.8,000.0,038.6,031.6,32.5,-003.6,0006.89,0009.59,0006.56
2023-07-05 18:24:00,SystemResetWarning,0835.8,5.00,000.00,030.1,028.8,000.0,038.6,031.7,32.4,-003.4,0006.93,0009.62,0006.62
2023-07-05 18:25:00,SystemResetWarning,0835.7,5.00,000.00,030.2,028.9,000.0,038.6,031.7,32.0,-003.1,0007.00,0009.70,0006.67
2023-07-05 18:26:00,SystemResetWarning,0835.7,4.99,000.00,030.2,028.9,000.0,038.6,031.7,31.8,-003.0,0007.04,0010.03,0006.70
2023-07-05 18:27:00,SystemResetWarning,0835.7,4.99,000.00,030.2,028.9,000.0,038.6,031.7,31.8,-003.0,0007.04,0010.38,0006.73
2023-07-05 18:28:00,SystemResetWarning,0835.7,5.00,000.00,030.2,029.0,000.0,038.7,031.7,32.0,-002.8,0007.03,0010.32,0006.74
2023-07-05 18:29:00,SystemResetWarning,0835.7,5.01,000.00,030.2,029.0,000.0,038.7,031.8,32.1,-002.7,0007.06,0010.37,0006.78
2023-07-05 18:30:00,SystemResetWarning,0835.7,5.01,000.00,030.2,029.0,000.0,038.7,031.8,32.0,-002.4,0007.09,0010.42,0006.80
2023-07-05 18:31:00,SystemResetWarning,0835.6,5.00,000.00,030.3,029.0,000.0,038.7,031.8,31.8,-002.2,0007.13,0010.43,0006.84
2023-07-05 18:32:00,SystemResetWarning,0835.6,5.00,000.00,030.3,029.1,000.0,038.7,031.8,31.5,-002.4,0007.16,0010.24,0006.87
2023-07-05 18:33:00,SystemResetWarning,0835.6,5.00,000.00,030.3,029.1,000.0,038.7,031.9,31.7,-002.5,0007.20,0010.15,0006.92
2023-07-05 18:34:00,SystemResetWarning,0835.6,4.98,000.00,030.3,027.7,000.0,038.7,031.8,31.7,-002.5,0007.23,0010.18,0006.95
2023-07-05 18:35:00,SystemResetWarning,0835.6,5.00,000.00,030.2,026.1,000.0,038.5,031.6,32.0,-002.4,0007.23,0010.18,0006.94
2023-07-05 18:36:00,SystemResetWarning,0835.6,5.00,000.00,030.1,025.7,000.0,038.5,031.2,32.7,-002.7,0007.27,0010.25,0006.95
2023-07-05 18:37:00,SystemResetWarning,0835.6,5.01,000.00,030.0,025.9,000.0,038.5,031.0,33.0,-002.6,0007.28,0009.98,0006.98
2023-07-05 18:38:00,SystemResetWarning,0835.6,5.01,000.00,029.9,026.3,000.0,038.5,031.1,32.6,-002.4,0007.34,0009.63,0007.03
2023-07-05 18:39:00,SystemResetWarning,0835.6,5.00,000.00,029.9,026.7,000.0,038.5,031.1,32.3,-002.6,0007.42,0009.72,0007.08
2023-07-05 18:40:00,SystemResetWarning,0835.6,5.00,000.00,029.8,027.0,000.0,038.5,031.2,32.2,-002.7,0007.45,0009.81,0007.10
2023-07-05 18:41:00,SystemResetWarning,0835.6,5.00,000.00,029.8,027.3,000.0,038.5,031.2,32.7,-002.9,0007.47,0009.87,0007.12
2023-07-05 18:42:00,SystemResetWarning,0835.6,5.00,000.00,029.8,027.6,000.0,038.5,031.3,32.9,-003.0,0007.48,0009.84,0007.12
2023-07-05 18:43:00,SystemResetWarning,0835.6,5.00,000.00,029.9,027.8,000.0,038.5,031.3,32.6,-003.2,0007.52,0009.90,0007.15
2023-07-05 18:44:00,SystemResetWarning,0835.6,4.99,000.00,029.9,028.0,000.0,038.5,031.3,32.6,-003.2,0007.55,0009.94,0007.18
2023-07-05 18:45:00,SystemResetWarning,0835.7,5.00,000.00,029.9,028.2,000.0,038.5,031.4,32.5,-003.1,0007.58,0009.98,0007.21
2023-07-05 18:46:00,SystemResetWarning,0835.6,5.00,000.00,029.9,028.3,000.0,038.5,031.4,32.7,-003.2,0007.60,0010.02,0007.24
2023-07-05 18:47:00,SystemResetWarning,0835.5,5.00,000.00,029.9,028.4,000.0,038.5,031.4,32.7,-003.3,0007.59,0009.93,0007.26
2023-07-05 18:48:00,SystemResetWarning,0835.6,5.00,000.00,029.9,028.5,000.0,038.5,031.5,32.8,-003.5,0007.60,0009.94,0007.26
2023-07-05 18:49:00,SystemResetWarning,0835.6,5.00,000.00,030.0,028.6,000.0,038.5,031.5,32.4,-003.6,0007.58,0009.99,0007.25
2023-07-05 18:50:00,SystemResetWarning,0835.6,5.00,000.00,030.0,028.6,000.0,038.5,031.5,32.4,-003.5,0007.55,0009.96,0007.23
2023-07-05 18:51:00,SystemResetWarning,0835.6,5.01,000.00,030.0,028.7,000.0,038.5,031.5,32.7,-003.4,0007.57,0009.95,0007.24
2023-07-05 18:52:00,SystemResetWarning,0835.6,5.00,000.00,030.0,028.7,000.0,038.5,031.6,33.2,-003.4,0007.58,0009.90,0007.26
2023-07-05 18:53:00,SystemResetWarning,0835.6,5.00,000.00,030.0,028.8,000.0,038.5,031.6,32.9,-003.3,0007.55,0009.85,0007.26
2023-07-05 18:54:00,SystemResetWarning,0835.6,5.00,000.00,030.1,028.8,000.0,038.6,031.6,32.7,-003.0,0007.52,0009.79,0007.25
2023-07-05 18:55:00,SystemResetWarning,0835.9,4.99,000.00,030.1,028.9,000.0,038.6,031.7,32.4,-003.0,0007.51,0009.75,0007.26
2023-07-05 18:56:00,SystemResetWarning,0835.7,5.00,000.00,030.1,028.9,000.0,038.6,031.7,32.2,-003.3,0007.53,0009.80,0007.26
2023-07-05 18:57:00,SystemResetWarning,0835.7,4.99,000.00,030.1,028.9,000.0,038.6,031.7,31.8,-003.4,0007.52,0009.80,0007.25
2023-07-05 18:58:00,SystemResetWarning,0835.7,5.00,000.00,030.2,029.0,000.0,038.6,031.7,32.2,-003.3,0007.52,0009.81,0007.25
2023-07-05 18:59:00,SystemResetWarning,0835.6,5.00,000.00,030.2,029.0,000.0,038.6,031.7,32.0,-003.2,0007.53,0009.81,0007.25
